Find Zhongxing 1E

NORAD ID: 53813 Int'l Des: 2022-112 Owner: ZLZB Country: CN operational
HEOCIRCULARGSOGEO

实时位置

正在加载3D地球...

关于 Zhongxing 1E

正在加载描述...

即将过境

Passes for default location (London). Set your location on the main map for personalized predictions.

高度历史

Loading altitude history...

两行轨道根数

1 53813U 22112A 26104.88800032 -.00000144 00000-0 00000-0 0 9990
2 53813 0.0468 298.1930 0001805 32.4868 273.4044 1.00270469 13217
Epoch: Apr 14, 2026 • Age: 11 hours

当前状态

高度 35785.6 km
速度 3.07 km/s
星下点 0.03°N, 81.36°E
发射日期 Sep 13, 2022
运行时间 3.5 years
类型 other

技术详情

分类 Payload
质量 5000.00 kg
干质量 2500.00 kg
总质量 5000.00 kg
长度 5.00 m
直径 2.50 m
跨度 30.00 m
形状 Box + 2 Pan
制造商 CAST
平台类型 DFH-4
阶段状态 In Orbit
所有者/国家 ZLZB/CN

Most Searched